Time,TemperatureF,DewpointF,PressureIn,WindDirection,WindDirectionDegrees,WindSpeedMPH,WindSpeedGustMPH,Humidity,HourlyPrecipIn,Conditions,Clouds,dailyrainin,SolarRadiationWatts/m^2,SoftwareType,DateUTC
2013-02-27 06:42:00,27.1,25.9,29.74,NNW,338,11.0,11.0,95,-99.99,,---,-99.99,0.00,VWS V14.01,2013-02-27 12:42:00,
2013-02-27 06:44:00,27.1,25.9,29.74,NW,315,11.0,11.0,95,-99.99,,---,-99.99,0.00,VWS V14.01,2013-02-27 12:44:00,
2013-02-27 06:48:00,27.1,25.9,29.74,NNW,338,12.8,12.8,95,-99.99,,---,-99.99,0.00,VWS V14.01,2013-02-27 12:48:00,
2013-02-27 06:54:00,27.0,26.0,29.74,NW,315,12.8,12.8,96,-99.99,,---,-99.99,0.00,VWS V14.01,2013-02-27 12:54:00,
2013-02-27 07:00:00,27.0,26.0,29.74,NNW,338,9.8,9.8,96,-99.99,,---,-99.99,0.00,VWS V14.01,2013-02-27 13:00:00,
2013-02-27 07:06:00,27.0,26.2,29.74,WNW,292,10.3,11.0,97,-99.99,,---,-99.99,0.00,VWS V14.01,2013-02-27 13:06:00,
2013-02-27 07:11:00,27.0,26.2,29.76,WNW,292,15.4,15.4,97,-99.99,,---,-99.99,0.00,VWS V14.01,2013-02-27 13:11:00,
2013-02-27 07:17:00,27.0,26.2,29.76,NW,315,8.7,12.8,97,-99.99,,---,-99.99,0.00,VWS V14.01,2013-02-27 13:17:00,
2013-02-27 07:23:00,27.0,26.5,29.74,WNW,292,10.5,12.5,98,-99.99,,---,-99.99,0.00,VWS V14.01,2013-02-27 13:23:00,
2013-02-27 07:28:00,27.0,26.5,29.74,WNW,292,10.7,10.7,98,-99.99,,---,-99.99,0.00,VWS V14.01,2013-02-27 13:28:00,
2013-02-27 07:33:00,27.0,26.5,29.74,NW,315,10.3,10.3,98,-99.99,,---,-99.99,0.00,VWS V14.01,2013-02-27 13:33:00,
2013-02-27 07:38:00,27.0,26.5,29.76,WNW,292,15.2,15.2,98,-99.99,,---,-99.99,0.00,VWS V14.01,2013-02-27 13:38:00,
2013-02-27 07:44:00,27.0,26.5,29.76,WNW,292,10.7,10.7,98,-99.99,,---,-99.99,0.00,VWS V14.01,2013-02-27 13:44:00,
2013-02-27 07:50:00,27.0,26.5,29.76,WNW,292,12.5,12.5,98,-99.99,,---,-99.99,0.00,VWS V14.01,2013-02-27 13:50:00,
2013-02-27 07:55:00,27.0,26.5,29.79,WNW,292,13.0,15.2,98,-99.99,,---,-99.99,0.00,VWS V14.01,2013-02-27 13:55:00,
2013-02-27 08:01:00,27.0,26.5,29.79,NNW,338,15.4,15.4,98,-99.99,,---,-99.99,0.00,VWS V14.01,2013-02-27 14:01:00,
2013-02-27 08:07:00,27.0,26.2,29.79,NW,315,13.2,13.2,97,-99.99,,---,-99.99,0.00,VWS V14.01,2013-02-27 14:07:00,
2013-02-27 08:12:00,27.0,26.2,29.79,NNW,338,15.4,15.4,97,-99.99,,---,-99.99,0.00,VWS V14.01,2013-02-27 14:12:00,
2013-02-27 08:18:00,27.0,26.2,29.79,NNW,338,13.2,15.4,97,-99.99,,---,-99.99,0.00,VWS V14.01,2013-02-27 14:18:00,
2013-02-27 08:23:00,27.1,26.1,29.79,WNW,292,10.1,14.5,96,-99.99,,---,-99.99,0.00,VWS V14.01,2013-02-27 14:23:00,
2013-02-27 08:28:00,27.1,26.1,29.79,NW,315,12.3,12.3,96,-99.99,,---,-99.99,0.00,VWS V14.01,2013-02-27 14:28:00,
2013-02-27 08:34:00,27.1,26.1,29.79,North,0,12.5,12.5,96,-99.99,,---,-99.99,0.00,VWS V14.01,2013-02-27 14:34:00,
2013-02-27 08:39:00,27.1,25.9,29.79,WNW,292,12.8,16.6,95,-99.99,,---,-99.99,0.00,VWS V14.01,2013-02-27 14:39:00,
2013-02-27 08:45:00,27.3,25.8,29.79,NNW,338,15.2,15.2,94,-99.99,,---,-99.99,0.00,VWS V14.01,2013-02-27 14:45:00,
2013-02-27 08:51:00,27.3,25.6,29.79,NNW,338,14.5,14.5,93,-99.99,,---,-99.99,0.00,VWS V14.01,2013-02-27 14:51:00,
2013-02-27 08:57:00,27.5,25.8,29.79,WNW,292,12.8,14.3,93,-99.99,,---,-99.99,0.00,VWS V14.01,2013-02-27 14:57:00,
2013-02-27 09:02:00,27.5,25.8,29.79,NW,315,12.8,13.6,93,-99.99,,---,-99.99,0.00,VWS V14.01,2013-02-27 15:02:00,
2013-02-27 09:08:00,27.5,25.5,29.76,NNW,338,15.4,15.4,92,-99.99,,---,-99.99,0.00,VWS V14.01,2013-02-27 15:08:00,
2013-02-27 09:13:00,27.7,25.7,29.79,NNW,338,12.8,14.8,92,-99.99,,---,-99.99,0.00,VWS V14.01,2013-02-27 15:13:00,
2013-02-27 09:19:00,27.7,25.9,29.79,NNW,338,14.5,14.5,93,-99.99,,---,-99.99,0.00,VWS V14.01,2013-02-27 15:19:00,
2013-02-27 09:24:00,27.7,25.7,29.79,NW,315,10.5,12.5,92,-99.99,,---,-99.99,0.00,VWS V14.01,2013-02-27 15:24:00,
2013-02-27 09:30:00,27.7,25.7,29.79,NW,315,15.4,15.4,92,-99.99,,---,-99.99,0.00,VWS V14.01,2013-02-27 15:30:00,
2013-02-27 09:35:00,27.9,25.8,29.79,NNW,338,12.8,13.0,92,-99.99,,---,-99.99,0.00,VWS V14.01,2013-02-27 15:35:00,
2013-02-27 09:40:00,27.9,25.6,29.79,NNW,338,11.0,13.9,91,-99.99,,---,-99.99,0.00,VWS V14.01,2013-02-27 15:40:00,
2013-02-27 09:46:00,28.0,25.8,29.79,NW,315,10.3,10.3,91,-99.99,,---,-99.99,0.00,VWS V14.01,2013-02-27 15:46:00,
2013-02-27 09:51:00,28.0,25.8,29.79,NW,315,10.3,10.3,91,-99.99,,---,-99.99,0.00,VWS V14.01,2013-02-27 15:51:00,
2013-02-27 09:57:00,28.0,25.8,29.82,NW,315,10.3,10.3,91,-99.99,,---,-99.99,0.00,VWS V14.01,2013-02-27 15:57:00,
2013-02-27 10:03:00,28.2,25.7,29.82,NW,315,12.1,12.1,90,-99.99,,---,-99.99,0.00,VWS V14.01,2013-02-27 16:03:00,
2013-02-27 10:08:00,28.2,25.7,29.82,NNW,338,19.7,19.7,90,-99.99,,---,-99.99,0.00,VWS V14.01,2013-02-27 16:08:00,
2013-02-27 10:14:00,28.2,25.7,29.82,NNW,338,10.3,10.3,90,-99.99,,---,-99.99,0.00,VWS V14.01,2013-02-27 16:14:00,
2013-02-27 10:19:00,28.4,25.9,29.82,WNW,292,11.4,11.4,90,-99.99,,---,-99.99,0.00,VWS V14.01,2013-02-27 16:19:00,
2013-02-27 10:24:00,28.2,25.4,29.82,NNW,338,11.0,15.4,89,-99.99,,---,-99.99,0.00,VWS V14.01,2013-02-27 16:24:00,
2013-02-27 10:30:00,28.4,25.6,29.82,NNE,22,13.0,13.0,89,-99.99,,---,-99.99,0.00,VWS V14.01,2013-02-27 16:30:00,
2013-02-27 10:36:00,28.6,25.5,29.82,NW,315,12.3,12.3,88,-99.99,,---,-99.99,0.00,VWS V14.01,2013-02-27 16:36:00,
2013-02-27 10:41:00,28.6,25.5,29.82,WNW,292,11.9,11.9,88,-99.99,,---,-99.99,0.00,VWS V14.01,2013-02-27 16:41:00,
2013-02-27 10:47:00,28.8,25.7,29.82,WNW,292,13.0,13.0,88,-99.99,,---,-99.99,0.00,VWS V14.01,2013-02-27 16:47:00,
2013-02-27 10:53:00,28.9,24.7,29.85,NW,315,10.7,10.7,84,-99.99,,---,-99.99,0.00,VWS V14.01,2013-02-27 16:53:00,
2013-02-27 10:58:00,28.6,23.8,29.85,NW,315,12.8,15.4,82,-99.99,,---,-99.99,0.00,VWS V14.01,2013-02-27 16:58:00,
2013-02-27 11:03:00,28.6,23.2,29.85,NW,315,13.2,15.2,80,-99.99,,---,-99.99,0.00,VWS V14.01,2013-02-27 17:03:00,
2013-02-27 11:09:00,28.6,23.2,29.85,NNW,338,13.6,13.6,80,-99.99,,---,-99.99,0.00,VWS V14.01,2013-02-27 17:09:00,
2013-02-27 11:15:00,28.6,23.2,29.85,NW,315,10.1,11.9,80,-99.99,,---,-99.99,0.00,VWS V14.01,2013-02-27 17:15:00,
2013-02-27 11:20:00,28.6,23.2,29.85,NNW,338,13.2,14.1,80,-99.99,,---,-99.99,0.00,VWS V14.01,2013-02-27 17:20:00,
2013-02-27 11:25:00,28.6,23.2,29.85,WNW,292,11.2,12.1,80,-99.99,,---,-99.99,0.00,VWS V14.01,2013-02-27 17:25:00,
2013-02-27 11:30:00,28.8,23.7,29.85,NNW,338,13.2,13.2,81,-99.99,,---,-99.99,0.00,VWS V14.01,2013-02-27 17:30:00,
2013-02-27 11:36:00,28.8,23.7,29.85,WNW,292,13.9,13.9,81,-99.99,,---,-99.99,0.00,VWS V14.01,2013-02-27 17:36:00,
2013-02-27 11:41:00,28.8,23.7,29.85,NNW,338,14.8,14.8,81,-99.99,,---,-99.99,0.00,VWS V14.01,2013-02-27 17:41:00,
2013-02-27 11:46:00,28.8,22.5,29.85,North,0,14.5,14.5,77,-99.99,,---,-99.99,0.00,VWS V14.01,2013-02-27 17:46:00,
2013-02-27 11:52:00,28.8,22.2,29.85,NNW,338,7.6,10.7,76,-99.99,,---,-99.99,0.00,VWS V14.01,2013-02-27 17:52:00,
2013-02-27 11:57:00,28.8,21.2,29.85,NW,315,14.5,14.5,73,-99.99,,---,-99.99,0.00,VWS V14.01,2013-02-27 17:57:00,
2013-02-27 12:03:00,28.6,20.0,29.85,NW,315,10.5,14.1,70,-99.99,,---,-99.99,0.00,VWS V14.01,2013-02-27 18:03:00,
2013-02-27 12:08:00,28.6,19.7,29.85,NNW,338,13.6,13.6,69,-99.99,,---,-99.99,0.00,VWS V14.01,2013-02-27 18:08:00,
2013-02-27 12:14:00,28.8,19.9,29.85,NW,315,13.0,15.4,69,-99.99,,---,-99.99,0.00,VWS V14.01,2013-02-27 18:14:00,
2013-02-27 12:20:00,28.8,19.5,29.85,NNW,338,14.8,14.8,68,-99.99,,---,-99.99,0.00,VWS V14.01,2013-02-27 18:20:00,
2013-02-27 12:26:00,28.9,18.7,29.85,NNW,338,11.9,13.2,65,-99.99,,---,-99.99,0.00,VWS V14.01,2013-02-27 18:26:00,
2013-02-27 12:31:00,28.8,18.5,29.85,NW,315,10.5,10.5,65,-99.99,,---,-99.99,0.00,VWS V14.01,2013-02-27 18:31:00,
2013-02-27 12:37:00,28.6,17.2,29.82,WNW,292,13.2,16.3,62,-99.99,,---,-99.99,0.00,VWS V14.01,2013-02-27 18:37:00,
2013-02-27 12:42:00,28.6,16.9,29.82,NW,315,12.8,830.6,61,-99.99,,---,-99.99,0.00,VWS V14.01,2013-02-27 18:42:00,
2013-02-27 12:47:00,28.6,16.9,29.82,NW,315,12.8,12.8,61,-99.99,,---,-99.99,0.00,VWS V14.01,2013-02-27 18:47:00,
2013-02-27 12:53:00,28.6,16.9,29.85,NNW,338,10.5,10.5,61,-99.99,,---,-99.99,0.00,VWS V14.01,2013-02-27 18:53:00,
2013-02-27 12:59:00,29.3,16.4,29.85,NNW,338,10.5,10.5,58,-99.99,,---,-99.99,0.00,VWS V14.01,2013-02-27 18:59:00,
2013-02-27 13:06:00,29.1,15.8,29.85,NW,315,15.4,15.4,57,-99.99,,---,-99.99,0.00,VWS V14.01,2013-02-27 19:06:00,
2013-02-27 13:11:00,28.9,15.6,29.85,NNW,338,14.3,14.3,57,-99.99,,---,-99.99,0.00,VWS V14.01,2013-02-27 19:11:00,
2013-02-27 13:17:00,29.3,16.0,29.85,NNW,338,10.1,10.1,57,-99.99,,---,-99.99,0.00,VWS V14.01,2013-02-27 19:17:00,
2013-02-27 13:22:00,29.7,16.7,29.85,NNW,338,8.7,10.7,58,-99.99,,---,-99.99,0.00,VWS V14.01,2013-02-27 19:22:00,
2013-02-27 13:27:00,29.8,16.9,29.85,NW,315,12.5,12.5,58,-99.99,,---,-99.99,0.00,VWS V14.01,2013-02-27 19:27:00,
2013-02-27 13:33:00,30.0,16.6,29.85,WNW,292,13.0,13.0,57,-99.99,,---,-99.99,0.00,VWS V14.01,2013-02-27 19:33:00,
2013-02-27 13:39:00,29.8,15.7,29.85,NW,315,10.5,12.3,55,-99.99,,---,-99.99,0.00,VWS V14.01,2013-02-27 19:39:00,
2013-02-27 13:45:00,29.7,15.1,29.85,NW,315,12.5,12.5,54,-99.99,,---,-99.99,0.00,VWS V14.01,2013-02-27 19:45:00,
2013-02-27 13:51:00,29.8,15.2,29.85,NNW,338,10.5,12.3,54,-99.99,,---,-99.99,0.00,VWS V14.01,2013-02-27 19:51:00,
2013-02-27 13:57:00,29.8,14.8,29.85,NNW,338,8.1,10.5,53,-99.99,,---,-99.99,0.00,VWS V14.01,2013-02-27 19:57:00,
2013-02-27 14:03:00,30.2,15.6,29.85,NW,315,12.3,12.3,54,-99.99,,---,-99.99,0.00,VWS V14.01,2013-02-27 20:03:00,
2013-02-27 14:08:00,30.2,15.6,29.85,NNW,338,13.0,15.2,54,-99.99,,---,-99.99,0.00,VWS V14.01,2013-02-27 20:08:00,
2013-02-27 14:13:00,30.2,15.1,29.85,NNW,338,10.3,10.3,53,-99.99,,---,-99.99,0.00,VWS V14.01,2013-02-27 20:13:00,
2013-02-27 14:19:00,30.2,15.1,29.85,North,0,7.6,13.2,53,-99.99,,---,-99.99,0.00,VWS V14.01,2013-02-27 20:19:00,
2013-02-27 14:24:00,30.2,15.1,29.85,North,0,13.6,13.6,53,-99.99,,---,-99.99,0.00,VWS V14.01,2013-02-27 20:24:00,
2013-02-27 14:30:00,30.2,14.7,29.85,NNW,338,13.2,13.2,52,-99.99,,---,-99.99,0.00,VWS V14.01,2013-02-27 20:30:00,
2013-02-27 14:35:00,30.2,14.7,29.85,WNW,292,9.2,13.0,52,-99.99,,---,-99.99,0.00,VWS V14.01,2013-02-27 20:35:00,
2013-02-27 14:41:00,30.2,14.7,29.85,NW,315,14.5,14.5,52,-99.99,,---,-99.99,0.00,VWS V14.01,2013-02-27 20:41:00,
2013-02-27 14:46:00,30.0,14.1,29.85,NNW,338,10.1,10.7,51,-99.99,,---,-99.99,0.00,VWS V14.01,2013-02-27 20:46:00,
2013-02-27 14:52:00,30.0,14.1,29.85,NNW,338,8.1,10.1,51,-99.99,,---,-99.99,0.00,VWS V14.01,2013-02-27 20:52:00,
2013-02-27 14:58:00,29.8,14.4,29.85,NW,315,13.2,13.2,52,-99.99,,---,-99.99,0.00,VWS V14.01,2013-02-27 20:58:00,
2013-02-27 15:03:00,29.8,13.9,29.85,WNW,292,12.3,12.3,51,-99.99,,---,-99.99,0.00,VWS V14.01,2013-02-27 21:03:00,
2013-02-27 15:08:00,30.0,14.1,29.85,NNW,338,12.3,12.5,51,-99.99,,---,-99.99,0.00,VWS V14.01,2013-02-27 21:08:00,
2013-02-27 15:14:00,30.2,13.8,29.85,NNW,338,8.1,8.1,50,-99.99,,---,-99.99,0.00,VWS V14.01,2013-02-27 21:14:00,
2013-02-27 15:20:00,30.2,13.8,29.85,NNW,338,10.1,12.8,50,-99.99,,---,-99.99,0.00,VWS V14.01,2013-02-27 21:20:00,
2013-02-27 15:26:00,30.6,11.8,29.85,NNW,338,10.3,10.3,45,-99.99,,---,-99.99,0.00,VWS V14.01,2013-02-27 21:26:00,
2013-02-27 15:32:00,31.1,11.2,29.85,NNW,338,10.1,10.1,43,-99.99,,---,-99.99,0.00,VWS V14.01,2013-02-27 21:32:00,
2013-02-27 15:37:00,31.1,11.8,29.85,NNW,338,8.5,8.5,44,-99.99,,---,-99.99,0.00,VWS V14.01,2013-02-27 21:37:00,
2013-02-27 15:43:00,31.1,11.2,29.85,NW,315,11.9,12.8,43,-99.99,,---,-99.99,0.00,VWS V14.01,2013-02-27 21:43:00,
2013-02-27 15:48:00,30.7,10.9,29.85,NNW,338,10.3,13.0,43,-99.99,,---,-99.99,0.00,VWS V14.01,2013-02-27 21:48:00,
2013-02-27 15:53:00,30.7,10.4,29.85,NW,315,15.4,15.4,42,-99.99,,---,-99.99,0.00,VWS V14.01,2013-02-27 21:53:00,
2013-02-27 16:00:00,31.1,10.7,0.00,NNW,338,10.1,10.3,42,-99.99,,---,-99.99,0.00,VWS V14.01,2013-02-27 22:00:00,
2013-02-27 16:06:00,31.3,10.9,29.85,WNW,292,11.0,12.3,42,-99.99,,---,-99.99,0.00,VWS V14.01,2013-02-27 22:06:00,
2013-02-27 16:12:00,31.6,11.2,29.85,NNW,338,8.7,8.7,42,-99.99,,---,-99.99,0.00,VWS V14.01,2013-02-27 22:12:00,
2013-02-27 16:18:00,31.8,11.4,29.85,NW,315,10.1,13.2,42,-99.99,,---,-99.99,0.00,VWS V14.01,2013-02-27 22:18:00,
2013-02-27 16:23:00,32.0,11.0,29.85,NNW,338,8.1,10.1,41,-99.99,,---,-99.99,0.00,VWS V14.01,2013-02-27 22:23:00,
2013-02-27 16:29:00,32.0,10.4,29.85,NW,315,7.8,10.5,40,-99.99,,---,-99.99,0.00,VWS V14.01,2013-02-27 22:29:00,
2013-02-27 16:34:00,31.8,10.3,29.85,NW,315,6.0,10.1,40,-99.99,,---,-99.99,0.00,VWS V14.01,2013-02-27 22:34:00,
2013-02-27 16:40:00,31.8,10.3,29.88,NW,315,8.1,9.6,40,-99.99,,---,-99.99,0.00,VWS V14.01,2013-02-27 22:40:00,
2013-02-27 16:45:00,32.0,10.4,29.88,NW,315,10.5,10.5,40,-99.99,,---,-99.99,0.00,VWS V14.01,2013-02-27 22:45:00,
2013-02-27 16:51:00,32.0,10.4,29.85,WNW,292,9.0,10.5,40,-99.99,,---,-99.99,0.00,VWS V14.01,2013-02-27 22:51:00,
2013-02-27 16:57:00,31.8,10.3,29.85,NNW,338,8.1,8.1,40,-99.99,,---,-99.99,0.00,VWS V14.01,2013-02-27 22:57:00,
2013-02-27 17:02:00,31.8,10.3,29.85,NW,315,10.3,10.3,40,-99.99,,---,-99.99,0.00,VWS V14.01,2013-02-27 23:02:00,
2013-02-27 17:08:00,32.0,9.3,29.85,WNW,292,10.1,12.3,38,-99.99,,---,-99.99,0.00,VWS V14.01,2013-02-27 23:08:00,
2013-02-27 17:13:00,32.0,9.3,29.85,NW,315,7.4,7.4,38,-99.99,,---,-99.99,0.00,VWS V14.01,2013-02-27 23:13:00,
2013-02-27 17:19:00,32.0,9.3,29.88,NNE,22,6.5,6.5,38,-99.99,,---,-99.99,0.00,VWS V14.01,2013-02-27 23:19:00,
2013-02-27 17:24:00,32.0,9.3,29.88,NNW,338,9.8,9.8,38,-99.99,,---,-99.99,0.00,VWS V14.01,2013-02-27 23:24:00,
2013-02-27 17:30:00,32.2,10.0,29.88,NNW,338,5.8,6.3,39,-99.99,,---,-99.99,0.00,VWS V14.01,2013-02-27 23:30:00,
2013-02-27 17:35:00,32.4,9.0,29.88,NW,315,10.3,11.0,37,-99.99,,---,-99.99,0.00,VWS V14.01,2013-02-27 23:35:00,
2013-02-27 17:41:00,32.4,9.0,29.88,NW,315,7.6,7.8,37,-99.99,,---,-99.99,0.00,VWS V14.01,2013-02-27 23:41:00,
2013-02-27 17:47:00,32.4,9.0,29.88,NNW,338,7.8,7.8,37,-99.99,,---,-99.99,0.00,VWS V14.01,2013-02-27 23:47:00,
2013-02-27 17:53:00,32.4,9.0,29.88,NNW,338,6.5,7.6,37,-99.99,,---,-99.99,0.00,VWS V14.01,2013-02-27 23:53:00,
2013-02-27 17:59:00,32.4,9.0,29.88,NNW,338,5.8,5.8,37,-99.99,,---,-99.99,0.00,VWS V14.01,2013-02-27 23:59:00,
2013-02-27 18:05:00,32.4,9.0,29.88,NNW,338,8.7,9.6,37,-99.99,,---,-99.99,0.00,VWS V14.01,2013-02-28 00:05:00,
2013-02-27 18:10:00,32.4,9.0,29.85,NW,315,8.5,8.7,37,-99.99,,---,-99.99,0.00,VWS V14.01,2013-02-28 00:10:00,
2013-02-27 18:15:00,32.5,8.6,29.85,NW,315,11.0,11.0,36,-99.99,,---,-99.99,0.00,VWS V14.01,2013-02-28 00:15:00,
2013-02-27 18:20:00,32.5,9.2,29.85,NW,315,12.1,12.1,37,-99.99,,---,-99.99,0.00,VWS V14.01,2013-02-28 00:20:00,
2013-02-27 18:25:00,32.7,8.7,29.85,NW,315,10.5,10.5,36,-99.99,,---,-99.99,0.00,VWS V14.01,2013-02-28 00:25:00,
2013-02-27 18:31:00,33.1,8.4,29.85,NNW,338,9.6,12.8,35,-99.99,,---,-99.99,0.00,VWS V14.01,2013-02-28 00:31:00,
2013-02-27 18:37:00,33.4,8.7,29.88,NNW,338,8.5,8.7,35,-99.99,,---,-99.99,0.00,VWS V14.01,2013-02-28 00:37:00,
2013-02-27 18:42:00,33.4,8.7,29.88,NNW,338,13.2,13.2,35,-99.99,,---,-99.99,0.00,VWS V14.01,2013-02-28 00:42:00,
2013-02-27 18:48:00,33.6,8.9,29.88,NNW,338,9.6,9.6,35,-99.99,,---,-99.99,0.00,VWS V14.01,2013-02-28 00:48:00,
2013-02-27 18:53:00,33.6,8.3,29.88,WNW,292,9.8,9.8,34,-99.99,,---,-99.99,0.00,VWS V14.01,2013-02-28 00:53:00,
2013-02-27 18:59:00,33.6,8.3,29.88,NNW,338,8.7,9.4,34,-99.99,,---,-99.99,0.00,VWS V14.01,2013-02-28 00:59:00,
2013-02-27 19:04:00,33.8,8.4,29.88,NW,315,12.1,12.1,34,-99.99,,---,-99.99,0.00,VWS V14.01,2013-02-28 01:04:00,
2013-02-27 19:09:00,33.8,7.8,29.88,NNW,338,10.1,10.1,33,-99.99,,---,-99.99,0.00,VWS V14.01,2013-02-28 01:09:00,
2013-02-27 19:14:00,33.8,7.8,29.88,NNW,338,8.1,8.5,33,-99.99,,---,-99.99,0.00,VWS V14.01,2013-02-28 01:14:00,
2013-02-27 19:19:00,33.8,7.8,29.88,NNW,338,7.8,8.7,33,-99.99,,---,-99.99,0.00,VWS V14.01,2013-02-28 01:19:00,
2013-02-27 19:25:00,33.6,8.3,29.88,North,0,6.5,12.3,34,-99.99,,---,-99.99,0.00,VWS V14.01,2013-02-28 01:25:00,
2013-02-27 19:31:00,33.8,8.4,29.88,NNW,338,10.3,11.0,34,-99.99,,---,-99.99,0.00,VWS V14.01,2013-02-28 01:31:00,
2013-02-27 19:36:00,33.8,7.8,29.88,NW,315,7.8,7.8,33,-99.99,,---,-99.99,0.00,VWS V14.01,2013-02-28 01:36:00,
2013-02-27 19:41:00,33.8,7.8,29.88,NNW,338,7.6,9.4,33,-99.99,,---,-99.99,0.00,VWS V14.01,2013-02-28 01:41:00,
2013-02-27 19:47:00,33.8,7.8,29.88,NNW,338,10.7,10.7,33,-99.99,,---,-99.99,0.00,VWS V14.01,2013-02-28 01:47:00,